Dewpoint
21 27 29 31 30 29 29 32 33 36 40 40 40 42 41 46 48 51 51 52 50 50 50 53 55 57 57 59 61 61 65 66 67 67 67 67 66 70 70 69 66 63 68 70
17 24 29 31 30 29 28 31 36 39 41 39 39 39 41 45 48 51 53 53 52 50 49 53 54 57 58 58 59 59 64 66 67 67 67 66 67 70 69 68 65 70 70 71
17 21 25 29 29 26 25 26 33 34 38 38 38 37 43 50 53 53 53 52 54 51 49 52 55 58 59 58 59 59 62 66 67 67 66 69 71 71 68 68 68 68 72 72
14 18 20 24 26 26 23 23 21 26 33 31 36 31 45 47 48 51 50 52 54 54 52 51 57 59 61 59 59 60 64 66 67 67 66 67 67 67 68 68 70 71 71 70
8 10 14 19 19 17 19 21 13 17 33 30 22 26 41 44 45 45 47 50 53 51 54 53 57 59 61 63 62 61 65 67 67 67 67 68 68 67 68 70 69 71 71 70
9 9 7 3 5 8 8 11 11 15 16 13 15 20 28 42 42 43 44 49 52 56 53 54 54 59 61 62 65 65 63 68 67 68 69 68 68 68 69 68 69 71 70 66
6 6 6 4 0 3 3 6 7 7 8 12 18 22 22 40 42 41 42 46 52 52 55 57 55 57 59 61 64 66 64 66 68 67 68 69 69 69 68 68 69 70 67 65
2 1 3 4 1 -0 1 2 2 3 7 9 14 21 28 43 43 47 46 51 51 53 53 55 57 56 58 61 63 65 66 66 69 68 69 69 70 69 69 66 69 70 68 65
2 3 5 4 4 3 -0 -1 5 4 12 9 17 34 36 43 43 43 44 52 53 54 44 47 54 57 56 60 62 65 66 68 70 69 70 70 69 70 68 68 67 69 66 67
2 1 5 4 4 4 2 3 -1 4 1 7 10 30 29 36 39 41 43 46 51 48 46 45 48 55 56 61 63 66 67 68 71 71 71 71 71 70 70 67 62 68 67 68
4 5 4 8 4 2 2 -0 1 3 10 4 7 22 33 33 37 40 44 43 46 49 51 49 46 53 56 59 65 67 69 68 70 72 72 72 72 71 71 68 64 68 67 67
18 6 3 4 8 8 6 4 2 0 -0 9 11 26 35 36 39 41 46 44 47 46 53 54 51 52 57 60 66 69 70 71 71 71 72 72 72 71 71 68 69 68 67 68
18 14 10 11 19 9 7 6 5 6 9 5 5 23 35 36 37 37 40 47 47 49 51 50 52 53 58 63 67 69 71 71 71 72 72 72 73 71 70 70 70 70 70 70
20 15 13 15 19 24 12 9 10 7 11 11 20 27 30 35 36 42 46 46 43 45 51 50 49 52 60 65 68 70 70 71 71 72 72 72 73 70 69 70 70 69 67 66
17 14 19 22 28 25 25 25 24 31 35 38 38 26 28 34 36 45 46 42 39 40 47 50 49 57 62 66 68 70 71 71 71 71 72 72 71 69 70 70 68 68 66 66
22 19 28 28 31 27 25 27 32 38 42 44 46 44 47 38 39 39 43 46 46 46 48 48 54 63 64 67 68 69 70 70 71 71 71 72 70 69 69 68 65 65 67 66
31 30 28 26 29 26 26 30 37 45 46 46 46 49 51 52 55 53 47 47 48 58 60 65 66 65 66 68 68 69 70 71 70 71 72 70 68 68 66 64 65 66 66 64
25 27 31 25 27 23 32 43 45 48 50 49 50 49 50 50 52 58 59 60 57 63 65 67 67 68 69 69 70 71 71 71 71 71 71 69 67 65 63 63 64 66 63 57
27 28 25 24 25 27 36 42 39 34 47 52 47 45 46 49 52 51 61 60 60 64 65 66 68 70 70 72 73 72 71 71 71 70 69 67 66 65 64 64 65 63 60 57
32 30 26 28 24 23 33 43 43 42 40 50 47 42 42 47 42 49 52 55 58 61 65 68 70 71 71 73 73 72 72 71 70 70 68 67 66 65 65 64 63 61 59 57
37 38 33 34 32 37 43 43 43 35 37 49 47 43 44 40 46 50 54 53 62 60 63 69 71 70 72 73 73 72 72 71 71 70 68 67 66 66 65 63 62 60 58 55
35 35 35 35 33 34 44 43 36 43 50 52 50 48 44 45 47 50 53 54 62 61 61 69 70 71 72 72 71 70 70 71 70 69 68 67 66 65 64 63 61 59 57 54
37 39 37 38 39 45 48 42 47 49 45 48 50 49 46 43 49 51 53 57 62 62 64 67 70 71 70 70 69 69 69 70 69 68 67 66 66 65 65 63 61 59 56 54
40 42 38 41 44 45 47 48 49 50 49 50 48 47 48 48 50 52 51 59 63 63 65 67 70 70 69 68 68 68 69 69 68 67 67 66 65 65 64 62 60 57 56 54
37 38 38 46 50 51 51 47 47 51 52 50 47 47 45 48 49 50 54 63 65 67 68 68 69 68 68 68 68 69 69 69 68 67 66 65 65 64 62 60 59 57 56 55
40 41 39 38 49 49 48 51 53 51 47 46 47 46 47 50 54 63 63 61 60 62 67 68 68 68 68 67 68 69 70 69 68 66 66 65 64 62 59 56 55 50 53 53
Wind_Speed
6 3 7 12 17 15 8 10 11 4 12 14 18 20 20 12 15 23 23 21 24 25 20 24 26 26 22 20 24 23 23 21 18 14 13 9 9 10 12 11 8 5 4 2
6 11 14 15 19 20 22 9 11 9 13 11 23 31 24 18 17 22 17 19 20 19 20 22 26 24 27 26 25 21 22 22 20 17 15 9 9 8 11 10 7 7 4 4
13 16 17 19 22 21 25 12 15 16 19 17 18 11 16 7 11 15 15 22 22 24 27 23 26 27 24 26 27 25 23 23 21 17 12 3 5 4 4 5 4 6 7 11
9 24 18 18 19 19 26 24 8 12 13 18 8 11 2 7 5 11 19 28 25 24 19 23 24 24 26 27 26 24 23 23 22 20 18 14 11 11 8 7 5 8 10 9
12 13 15 20 27 22 24 20 3 2 14 9 7 2 4 7 13 23 25 30 19 17 21 25 27 29 28 25 25 25 24 23 22 24 22 19 14 14 7 8 10 10 8 10
18 8 8 11 9 10 3 3 9 5 5 10 6 1 7 13 23 25 29 14 15 9 19 25 24 24 26 23 23 22 25 24 22 24 22 21 19 14 11 12 13 13 8 11
8 17 13 9 10 6 4 5 5 4 4 17 5 5 18 26 20 26 26 13 8 15 9 9 25 25 28 26 24 22 24 23 22 23 22 17 18 16 17 18 14 13 12 10
2 10 11 7 13 5 6 6 6 5 8 15 8 7 7 13 3 4 9 16 12 6 14 19 24 25 26 30 28 26 25 23 22 22 22 20 17 17 17 20 15 16 16 15
5 6 12 17 8 11 2 6 6 3 3 3 4 5 7 4 6 2 4 22 20 21 12 11 25 27 24 30 31 30 26 23 23 25 20 22 19 15 18 19 15 18 16 15
4 7 4 6 4 5 4 6 2 4 3 5 4 4 3 13 15 10 14 15 18 23 41 39 29 14 19 26 30 27 27 29 26 24 22 20 20 17 16 14 15 17 15 16
8 2 8 1 6 11 5 6 4 5 6 3 3 2 8 16 16 17 19 21 26 28 25 28 20 18 14 22 26 29 26 25 24 22 22 20 20 18 16 17 14 15 17 19
3 4 2 8 17 13 10 11 7 4 7 3 3 5 2 12 14 19 25 20 13 6 2 18 20 22 20 24 25 27 25 25 24 24 23 22 19 17 15 13 11 13 12 14
5 3 3 10 23 7 8 6 6 5 4 1 1 5 4 11 13 17 25 11 9 9 15 10 16 20 24 25 24 25 24 23 21 20 22 20 19 16 16 18 7 11 8 15
4 5 6 1 8 8 7 3 2 6 5 1 3 12 12 5 12 8 14 19 22 30 19 22 22 18 21 22 24 23 22 21 22 19 19 19 16 14 19 18 13 16 19 21
3 2 4 7 6 11 3 10 19 17 6 9 9 8 11 17 15 22 19 20 22 20 17 14 19 17 23 22 22 20 21 20 20 18 16 15 18 23 20 19 20 17 14 15
3 1 3 6 12 16 8 12 13 12 8 12 19 12 19 5 6 8 15 18 16 24 24 20 17 21 23 25 26 22 21 20 20 18 18 18 20 22 23 20 20 19 17 14
3 3 3 2 9 9 10 11 16 15 17 6 17 8 22 21 23 20 16 12 4 14 14 16 21 25 24 26 26 25 23 20 20 20 20 20 23 25 25 25 18 20 17 17
3 4 2 1 7 4 4 14 28 23 10 13 8 17 12 12 13 6 11 19 11 13 18 19 20 19 19 21 20 20 22 23 22 20 19 20 23 24 21 20 19 17 18 19
1 3 1 1 1 4 2 5 2 2 4 2 8 13 13 17 8 7 14 18 18 5 15 22 21 22 20 22 22 24 22 22 22 21 19 19 23 24 21 19 18 17 18 18
3 6 3 2 4 10 4 4 5 4 5 8 5 2 6 13 6 11 21 26 19 14 4 12 17 16 19 18 21 22 21 22 22 22 22 21 23 25 21 19 20 16 17 16
1 2 6 5 4 3 3 8 6 4 5 10 7 10 5 5 7 13 18 19 15 11 10 6 16 22 18 18 19 20 19 21 21 19 20 20 19 22 22 20 17 17 18 17
6 6 5 3 5 6 5 4 2 5 5 10 9 12 16 10 11 15 23 23 13 13 14 7 9 12 15 20 21 19 20 20 23 24 22 20 19 17 20 21 18 17 18 19
2 3 2 3 4 3 0 6 6 10 7 8 11 16 15 15 16 21 15 24 18 13 8 6 16 21 18 18 25 25 20 23 24 24 24 22 19 18 19 20 19 18 18 18
4 1 4 4 4 7 6 3 5 9 8 6 12 16 13 20 23 13 14 20 16 12 9 16 19 17 20 17 20 23 22 22 25 23 22 22 21 20 18 16 17 18 17 16
4 6 2 2 1 1 4 10 10 11 11 12 11 12 9 10 14 8 13 5 9 13 4 16 22 20 20 18 18 16 17 20 21 23 22 21 20 20 19 16 17 20 17 20
2 2 1 4 8 4 8 14 14 12 14 16 12 16 17 9 12 3 3 3 6 10 8 6 11 17 21 21 21 20 24 19 23 23 22 21 19 17 18 19 14 8 11 14
Wind_Direction
257 242 237 267 270 269 263 274 268 182 86 348 275 254 238 189 185 181 190 193 195 198 194 167 169 173 174 174 170 168 174 181 168 171 173 189 209 158 169 176 214 220 220 179
271 244 239 248 262 270 277 257 234 178 189 186 256 272 260 189 194 175 177 201 196 193 180 169 165 171 174 177 180 173 180 179 179 177 187 182 182 185 182 191 213 193 179 235
222 234 238 244 263 272 276 249 216 212 186 177 227 239 219 67 117 154 167 194 188 196 179 172 172 174 176 174 176 181 181 182 180 182 185 158 119 92 182 206 212 202 178 178
240 245 241 240 244 248 265 270 216 242 184 230 227 252 159 93 158 198 181 208 187 186 179 175 177 177 180 183 180 182 178 178 180 179 189 191 189 188 208 195 188 175 179 146
231 226 227 240 245 249 248 258 250 98 190 209 197 193 227 170 185 214 213 228 195 190 175 186 181 187 191 179 183 183 178 179 179 184 190 191 195 196 169 172 169 174 166 147
254 254 206 241 278 237 271 354 17 40 21 301 276 23 277 208 202 207 225 219 213 196 197 189 197 190 199 188 183 183 181 183 182 183 187 194 202 197 171 173 182 172 169 154
306 287 285 247 273 308 65 62 322 312 292 253 7 305 262 210 214 212 209 62 208 176 150 155 206 194 197 191 189 186 184 188 187 190 192 189 199 181 172 176 184 176 158 167
281 304 238 212 209 211 238 159 195 242 258 292 317 245 257 251 213 225 82 110 109 137 151 186 197 212 203 191 190 186 185 189 188 192 195 194 191 192 188 191 185 185 171 176
215 265 315 191 170 174 229 220 191 237 100 314 290 297 303 170 191 132 119 119 159 183 38 262 216 217 209 192 192 186 184 187 187 192 191 198 195 191 192 197 184 177 171 169
240 283 324 312 140 207 193 154 225 39 338 304 298 244 244 225 224 211 213 190 181 168 182 218 235 248 199 193 190 185 182 184 186 188 189 192 200 195 190 175 178 181 174 168
202 169 309 217 207 208 220 233 89 122 150 236 281 251 227 219 238 182 191 214 189 206 194 211 224 236 238 195 182 180 180 181 184 184 185 187 196 191 182 182 169 178 162 164
150 138 272 274 284 229 207 229 180 179 223 223 157 216 330 193 209 169 190 210 240 325 327 240 237 241 206 184 178 176 175 176 186 186 180 185 187 180 173 153 159 145 157 147
156 61 36 347 351 57 202 212 168 147 134 330 178 218 229 190 170 191 180 173 208 239 213 216 238 236 185 176 172 172 171 176 181 180 179 175 181 175 116 113 112 154 142 147
86 119 120 260 280 279 292 311 244 97 45 333 286 176 215 197 163 180 163 164 185 201 195 213 222 221 178 172 166 167 169 175 177 179 177 171 169 122 121 163 135 123 106 72
93 117 127 311 339 11 57 62 101 80 91 70 352 263 246 196 186 167 176 176 187 223 234 215 220 200 172 161 160 168 171 171 173 174 167 153 127 132 156 172 153 148 132 128
48 117 77 328 4 11 24 101 86 77 79 88 45 23 336 278 323 169 186 197 212 247 246 247 203 174 167 162 165 167 167 169 165 160 157 139 135 140 157 155 146 139 147 145
37 51 89 317 356 22 23 350 88 79 33 49 50 328 20 14 12 16 354 324 214 168 181 175 171 166 166 166 166 169 167 159 159 156 158 141 132 140 145 147 148 147 147 141
69 43 88 324 35 53 136 95 107 100 62 43 48 31 6 343 309 323 0 32 7 160 160 160 157 159 159 160 162 152 154 157 155 153 155 138 132 136 142 143 145 141 144 148
86 120 302 187 262 268 103 27 327 172 67 346 55 27 359 5 351 31 343 11 13 301 182 171 169 161 156 159 151 149 150 148 146 147 145 134 135 139 147 146 146 148 146 143
70 102 205 179 245 262 199 274 314 119 182 250 253 93 32 7 6 299 334 334 344 9 324 185 164 153 153 150 143 145 149 146 147 145 146 144 143 143 146 149 152 148 146 143
177 112 170 157 192 223 241 290 320 179 229 206 222 267 253 276 258 287 316 314 307 323 320 230 174 170 156 147 146 146 150 154 149 138 138 141 143 144 146 145 146 145 142 139
194 179 190 138 182 215 211 266 184 194 173 206 237 277 293 255 270 297 303 292 272 297 306 198 176 147 153 156 145 146 155 155 140 141 139 140 141 144 143 147 145 143 142 144
40 183 178 179 198 183 281 196 186 162 169 208 223 244 254 285 305 311 311 291 264 277 270 200 178 170 174 160 158 160 164 145 137 136 145 144 141 141 147 148 147 149 150 154
323 105 92 140 176 174 215 238 197 186 208 246 251 259 244 260 279 266 315 302 257 275 283 176 179 176 170 167 165 160 152 142 135 145 139 139 145 146 149 143 149 153 157 157
280 338 84 81 333 350 274 236 219 227 247 261 271 248 280 320 278 308 299 336 355 345 22 176 175 173 168 162 129 123 138 132 136 139 146 151 149 150 148 148 162 166 173 172
72 19 191 213 207 188 237 236 235 235 254 273 298 313 316 332 308 234 125 107 59 26 24 220 186 177 162 137 122 135 127 158 153 157 156 150 151 149 152 151 152 114 169 203